Back to catalog

STARLINK-3374

AliveCommunicationsVLEO
NORAD 51112·PAYLOAD·🇺🇸 United States

Launched Jan 19, 2022 from Cape Canaveral Space Force Station

Loading…

Next Passes (next 24 hours)

TLE

FreshSource: CelesTrak SupGP

Epoch: Sep 14, 2026, 13:12 UTC

1 51112C 22005J   26257.55048611  .00044181  00000+0  13056-2 0  2572
2 51112  53.1574 153.5957 0001244  97.9431 300.9896 15.34361093    17

Track STARLINK-3374 in real time with AllMySat

Download on the App Store